Location: Epalinges
(46.5518°N, 6.6683°E)
Time: 20:35:58
(UTC+00:00)

Cosmos 1092 Rocket - Pass Details

Date: 20 June 2021
Orbit: 955 x 994 km, 82.9° (Epoch: 23 July)

Event Time Altitude Azimuth Distance (km) Brightness Sun altitude
Exits shadow 01:11:05 22° 178° (S) 1,934 5.0 -16.7°
Maximum altitude 01:15:09 77° 96° (E) 983 4.0 -16.4°
Drops below altitude 10° 01:21:19 10° 11° (N) 2,699 7.6 -16.0°
Sets 01:23:50 0° 10° (N) 3,652 8.5 -15.8°
